Notices

What's New in latest Release from April 7th, 2021:

- Updated Glossary, including Speed of Maximum Gust, and Total Hourly Precipitation

- Updated national and regional climate services offices contacts and prices information

- Addition of station inventory lists for 1981-2010, 1971-2000, and 1961-1990 Normals.

If you haven't already, please take our survey and provide feedback about our website: https://eccc.sondage-survey.ca/f/LanguageSelection.aspx?s=442ca660-fcf1-47c0-95a9-59707d6fd709

Hourly Data Report for November 10, 2016

VICTORIA UNIVERSITY CS
BRITISH COLUMBIA

48°27'25.200" N
123°18'16.600" W
60.10 m
1018598
71783
WYJ

Download Data

Hourly Data (November 2016)
Hourly Data Report for November 10, 2016
TIME
LST
Temp Definition
°C
Dew Point Definition
°C
Rel Hum Definition
%
Precip. Amount Definition
mm

Wind Dir Definition
10's deg

Wind Spd Definition
km/h
Visibility Definition
km
Stn Press Definition
kPa
Hmdx Definition


Wind Chill Definition


Weather Definition


00:00 12.2 11.9 98 0.0 1 10   101.32     LegendNANA
01:00 11.9 11.4 97 0.0 1 9   101.24     LegendNANA
02:00 11.2 11.0 99 0.0 34 9   101.21     LegendNANA
03:00 10.9 10.6 98 0.0 34 7   101.20     LegendNANA
04:00 10.8 10.2 96 0.0 33 6   101.14     LegendNANA
05:00 10.6 10.1 96 0.0 36 6   101.14     LegendNANA
06:00 10.6 9.8 95 0.0 36 8   101.12     LegendNANA
07:00 10.2 9.7 97 0.0 36 8   101.05     LegendNANA
08:00 10.5 9.7 95 0.0 34 7   101.13     LegendNANA
09:00 11.3 9.7 90 0.0 36 12   101.11     LegendNANA
10:00 11.8 10.2 90 0.0 35 7   101.11     LegendNANA
11:00 12.6 10.1 85 0.0 35 8   101.07     LegendNANA
12:00 12.9 10.1 83 0.0 34 10   101.02     LegendNANA
13:00 12.7 9.4 80 0.0 35 9   100.95     LegendNANA
14:00 14.2 9.5 73 0.0 33 10   100.93     LegendNANA
15:00 13.9 9.7 76 0.0 33 5   100.89     LegendNANA
16:00 12.4 9.9 84 0.0 9 3   100.84     LegendNANA
17:00 11.4 9.8 90 0.0 27 1   100.82     LegendNANA
18:00 11.2 10.0 93 0.0 26 3   100.82     LegendNANA
19:00 10.9 10.0 95 0.0   0   100.81     LegendNANA
20:00 10.9 10.2 96 0.0 24 3   100.84     LegendNANA
21:00 11.3 10.6 95 0.0 25 3   100.86     LegendNANA
22:00 11.0 10.3 96 0.0 33 1   100.86     LegendNANA
23:00 10.8 10.3 97 0.0 15 2   100.86     LegendNANA

Notes on Data Quality.

Legend

  • E = Estimated
  • M = Missing
  • NA = Not Available*
  • [empty] = Indicates an unobserved value
Date modified: